Flag for Finland Weather past 2 weeks in Rovaniemi, Finland

Now
32 °F

Light snow. Partly sunny.


Feels Like: 21 °F
Forecast: 28 / 38 °F
Wind: 17 mph from South

Location: Rovaniemi Airport

Current Time: Apr 1, 2015 at 5:52:23 PM

Latest Report: Apr 1, 2015 at 5:20 PM


Visibility: 3 mi

Pressure: 29.24 "Hg

Humidity: 93%

Dew point: 30 °F

Location of RovaniemiLocation

Historic Weather in Rovaniemi — Graph

°F

Rovaniemi temperature yesterday

Maximum temperature yesterday: 32 °F (at 1:50 PM)
Minimum temperature yesterday: 28 °F (at 6:50 AM)
Average temperature yesterday: 31 °F

Past Weeks' High & Low Weather Summary

 TemperatureHumidityPressure
High39 °F (Mar 17, 3:20 PM)100% (Mar 17, 11:20 PM)30.63 "Hg (Mar 17, 11:20 PM)
Low5 °F (Mar 22, 4:50 AM)25% (Mar 27, 1:50 PM)28.91 "Hg (Mar 31, 6:20 PM)
Average26 °F80%29.73 "Hg
* Reported Mar 17 3:20 PM — Apr 1 4:50 PM, Rovaniemi, Weather by CustomWeather, © 2015

Note: Actual official high and low records may vary slightly from our data, if they occured in-between our weather recording intervals... More about our weather records

Advertising

Rovaniemi weather history for previous 24 hours

 ConditionsComfort  
Time TempWeatherWind HumidityBarometerVisibility
4:50 PM
Wed, Apr 1
32 °FLight snow. Cloudy.16 mph93%29.24 "Hg6 mi
4:20 PM32 °FPartly sunny.16 mph87%29.21 "HgN/A
3:50 PM32 °FCloudy.18 mph87%29.21 "HgN/A
3:20 PM32 °FCloudy.18 mph87%29.21 "HgN/A
2:50 PM32 °FPartly sunny.20 mph93%29.18 "HgN/A
2:20 PM32 °FPartly sunny.18 mph93%29.15 "HgN/A
1:50 PM32 °FPartly sunny.16 mph93%29.15 "HgN/A
1:20 PM32 °FPartly sunny.17 mph93%29.15 "HgN/A
12:50 PM32 °FLight rain. Broken clouds.18 mph93%29.12 "Hg4 mi
12:20 PM32 °FLight rain. Partly sunny.18 mph93%29.09 "HgN/A
11:50 AM32 °FLight rain. Partly sunny.16 mph100%29.09 "HgN/A
11:20 AM32 °FPartly sunny.14 mph100%29.09 "Hg4 mi
10:50 AM32 °FLight snow. Partly sunny.15 mph100%29.06 "Hg2 mi
10:20 AM32 °FLight snow. Partly sunny.13 mph100%29.06 "Hg1 mi
9:50 AM32 °FLight snow. Partly sunny.13 mph100%29.06 "HgN/A
9:20 AM32 °FLight snow. Partly sunny.10 mph100%29.03 "Hg3 mi
8:50 AM32 °FLight snow. Broken clouds.10 mph100%29.03 "Hg4 mi
8:20 AM32 °FLight snow. Broken clouds.10 mph100%29.03 "HgN/A
7:50 AM32 °FLight snow. Partly sunny.10 mph100%29.03 "HgN/A
7:20 AM32 °FLight snow. Passing clouds.9 mph100%29.03 "Hg2 mi
6:50 AM32 °FLight snow. Partly cloudy.8 mph100%29.00 "Hg2 mi
6:20 AM32 °FLight snow. Partly cloudy.9 mph100%29.00 "Hg3 mi
5:50 AM32 °FLight snow. Overcast.9 mph100%29.00 "Hg3 mi
5:20 AM32 °FLight snow. Partly cloudy.9 mph100%29.00 "Hg4 mi
4:50 AM32 °FLight snow. Overcast.10 mph100%29.00 "HgN/A
4:20 AM32 °FLight snow. Fog.10 mph100%28.97 "Hg4 mi
3:50 AM32 °FLight snow. Dense fog.7 mph100%28.97 "Hg1 mi
3:20 AM32 °FLight snow. Dense fog.8 mph100%28.97 "Hg2 mi
2:50 AM32 °FLight snow. Mostly cloudy.7 mph100%28.97 "Hg2 mi
2:20 AM32 °FLight snow. Mostly cloudy.8 mph100%28.97 "Hg2 mi
1:50 AM32 °FLight snow. Overcast.7 mph100%28.97 "Hg2 mi
1:20 AM32 °FSleet. Overcast.7 mph100%28.97 "Hg3 mi
12:50 AM32 °FIce fog.7 mph100%28.97 "Hg2 mi
12:20 AM34 °FFog.7 mph100%28.94 "Hg1 mi
11:50 PM
Tue, Mar 31
32 °FLight fog.6 mph100%28.94 "Hg6 mi
11:20 PM32 °FIce fog.5 mph100%28.97 "Hg2 mi
10:50 PM32 °FLight snow. Fog.6 mph100%28.97 "Hg2 mi
10:20 PM32 °FSnow. Dense fog.6 mph100%28.97 "Hg1 mi
9:50 PM32 °FLight snow. Fog.7 mph100%28.94 "Hg3 mi
9:20 PM32 °FLight snow. Overcast.7 mph100%28.94 "Hg4 mi
8:50 PM32 °FSnow flurries. Cloudy.7 mph100%28.94 "Hg4 mi
8:20 PM32 °FSnow flurries. Broken clouds.7 mph100%28.94 "HgN/A
7:50 PM32 °FLight snow. Mostly cloudy.6 mph100%28.94 "Hg4 mi
7:20 PM32 °FLight snow. Partly sunny.7 mph100%28.94 "Hg4 mi
6:50 PM32 °FLight snow. Broken clouds.6 mph100%28.91 "Hg2 mi
6:20 PM32 °FLight snow. Broken clouds.6 mph100%28.91 "Hg2 mi
5:50 PM32 °FLight snow. Cloudy.6 mph100%28.94 "Hg2 mi
5:20 PM32 °FSnow. Broken clouds.8 mph100%28.94 "Hg1 mi
Weather by CustomWeather, © 2015

See weather overviewHow to use our weather pages